This is the latest recevied weather packets stored in our database for station/object IK2ILW-6. If no packets are shown the sender has not sent any weather packets the latest 10 day(s).
| Time | Temp. | Humidity | Pressure | Rain* | Wind** | Luminosity | Snow |
|---|---|---|---|---|---|---|---|
| 1777416102 | 5° C | 94% | 1018.3 hPa | 25.91 mm | - | 0 W/m² | - |
| 1777415787 | 5° C | 92% | 1018.2 hPa | 30.99 mm | - | 0 W/m² | - |
| 1777415491 | 4.44° C | 92% | 1018.5 hPa | 33.02 mm | - | 0 W/m² | - |
| 1777415196 | 5° C | 92% | 1018.7 hPa | 34.04 mm | - | 0 W/m² | - |
| 1777414901 | 5° C | 91% | 1018.5 hPa | 34.04 mm | - | 0 W/m² | - |
| 1777413691 | 5° C | 93% | 1018.4 hPa | 38.1 mm | - | 0 W/m² | - |
| 1777413395 | 5° C | 94% | 1018.4 hPa | 39.12 mm | - | 0 W/m² | - |
| 1777413100 | 5° C | 94% | 1018.6 hPa | 35.05 mm | - | 0 W/m² | - |
| 1777412783 | 5° C | 94% | 1018.6 hPa | 29.97 mm | - | 0 W/m² | - |
| 1777412486 | 5.56° C | 94% | 1018.6 hPa | 24.89 mm | - | 0 W/m² | - |
| 1777412196 | 5.56° C | 94% | 1018.6 hPa | 18.03 mm | - | 0 W/m² | - |
| 1777411899 | 5.56° C | 94% | 1018.4 hPa | 11.94 mm | - | 0 W/m² | - |
| 1777411583 | 5.56° C | 93% | 1018.4 hPa | 9.91 mm | - | 0 W/m² | - |
| 1777411286 | 5.56° C | 93% | 1018.3 hPa | 8.89 mm | - | 0 W/m² | - |
| 1777410990 | 5.56° C | 93% | 1018.4 hPa | 8.89 mm | - | 0 W/m² | - |
| 1777410696 | 6.11° C | 92% | 1018.4 hPa | 7.87 mm | - | 0 W/m² | - |
| 1777410401 | 6.11° C | 92% | 1018.5 hPa | 4.06 mm | - | 0 W/m² | - |
| 1777410084 | 6.11° C | 90% | 1018.4 hPa | 1.02 mm | - | 0 W/m² | - |
| 1777409788 | 6.11° C | 91% | 1018.3 hPa | 0 mm | - | 0 W/m² | - |
| 1777409493 | 6.11° C | 88% | 1018.3 hPa | 0 mm | - | 0 W/m² | - |
| 1777409197 | 6.11° C | 86% | 1018.3 hPa | 0 mm | - | 0 W/m² | - |
| 1777408886 | 6.11° C | 88% | 1018.3 hPa | 0 mm | - | 0 W/m² | - |
| 1777408590 | 6.11° C | 87% | 1018.4 hPa | 0 mm | - | 0 W/m² | - |
| 1777408295 | 6.11° C | 86% | 1018.5 hPa | 0 mm | - | 0 W/m² | - |
| 1777408001 | 6.11° C | 86% | 1018.6 hPa | 0 mm | - | 0 W/m² | - |
* Rain latest hour (hover to see other rain measurements)
** Current wind speed in m/s (hover to see current wind gust speed)